START_TIME,STEP,MOV.,M29,t_acc.,H22,t_acc.,H26,t_acc.,H30,t_acc.
1979-07-15 15:00:32.120 ,1,0,0.,24.0,0.,24.0,0.,24.0,0.,24.0
1979-07-15 15:00:56.120 ,2,1,0.,24.0,0.,24.0,0.,24.0,0.,24.0
1979-07-15 15:01:20.120 ,2,0,0.,24.0,0.,24.0,0.,24.0,0.,24.0
1979-07-15 15:01:44.120 ,3,1,0.,24.0,0.,24.0,0.,24.0,0.,24.0
1979-07-15 15:02:08.120 ,3,0,0.,24.0,0.,24.0,0.,24.0,0.,24.0
1979-07-15 15:02:32.120 ,4,1,0.,24.0,0.,24.0,0.,24.0,0.,24.0
1979-07-15 15:02:56.120 ,4,0,0.,24.0,0.,24.0,0.,24.0,0.,24.0
1979-07-15 15:03:20.120 ,5,1,0.,24.0,0.,24.0,0.,24.0,0.,24.0
1979-07-15 15:03:44.120 ,5,0,0.,24.0,0.,24.0,0.,24.0,0.,24.0
1979-07-15 15:04:08.120 ,6,1,0.,24.0,0.,24.0,0.,24.0,0.,24.0
1979-07-15 15:04:32.120 ,6,0,0.,24.0,0.,24.0,0.,24.0,0.,24.0
1979-07-15 15:04:56.120 ,7,1,0.,24.0,0.,24.0,0.,24.0,0.,24.0
1979-07-15 15:05:20.120 ,7,0,0.,24.0,0.,24.0,0.,24.0,0.,24.0
1979-07-15 15:05:44.110 ,7,1,0.,24.0,0.,24.0,0.,24.0,0.,24.0
1979-07-15 15:06:08.110 ,7,0,0.,24.0,0.,24.0,0.,24.0,0.,24.0
1979-07-15 15:06:32.110 ,6,1,0.,24.0,0.,24.0,0.,24.0,0.,24.0
1979-07-15 15:06:56.110 ,6,0,0.,24.0,0.,24.0,0.,24.0,0.,24.0
1979-07-15 15:07:20.110 ,5,1,0.,24.0,0.,24.0,0.,24.0,0.,24.0
1979-07-15 15:07:44.110 ,5,0,0.,24.0,0.,24.0,0.,24.0,0.,24.0
1979-07-15 15:08:08.110 ,4,1,0.,24.0,0.,24.0,0.,24.0,0.,24.0
1979-07-15 15:08:32.110 ,4,0,0.,24.0,0.,24.0,0.,24.0,0.,24.0
1979-07-15 15:08:56.120 ,3,1,0.,24.0,0.,24.0,0.,24.0,0.,24.0
1979-07-15 15:09:20.120 ,3,0,0.,24.0,0.,24.0,0.,24.0,0.,24.0
1979-07-15 15:10:08.120 ,2,0,0.,24.0,0.,24.0,0.,24.0,0.,24.0
1979-07-15 15:10:32.120 ,1,1,0.,24.0,0.,24.0,0.,24.0,0.,24.0
1979-07-15 15:10:56.120 ,1,0,0.,24.0,0.,24.0,0.,24.0,0.,24.0
1979-07-15 15:11:20.120 ,0,1,0.,24.0,0.,24.0,0.,24.0,0.,24.0
1979-07-15 15:11:44.120 ,0,0,0.,24.0,0.,24.0,0.,24.0,0.,24.0
1979-07-15 15:12:08.120 ,0,1,0.,24.0,0.,24.0,0.,24.0,0.,24.0
1979-07-15 15:12:32.120 ,0,0,0.,24.0,0.,24.0,0.,24.0,0.,24.0
1979-07-15 15:12:56.120 ,1,1,0.,24.0,0.,24.0,0.,24.0,0.,24.0
1979-07-15 15:13:20.120 ,1,0,0.,24.0,0.,24.0,0.,24.0,0.,24.0
1979-07-15 15:13:44.120 ,2,1,0.,24.0,0.,24.0,0.,24.0,0.,24.0
1979-07-15 15:14:08.120 ,2,0,0.,24.0,0.,24.0,0.,24.0,0.,24.0
1979-07-15 15:14:32.120 ,3,1,0.,24.0,0.,24.0,0.,24.0,0.,24.0
1979-07-15 15:14:56.120 ,3,0,0.,24.0,0.,24.0,0.,24.0,0.,24.0
1979-07-15 15:15:20.120 ,4,1,0.,24.0,0.,24.0,0.,24.0,0.,24.0
1979-07-15 15:15:44.120 ,4,0,0.,24.0,0.,24.0,0.,24.0,0.,24.0
1979-07-15 15:16:08.120 ,5,1,0.,24.0,0.,24.0,0.,24.0,0.,24.0
1979-07-15 15:16:32.120 ,5,0,0.,24.0,0.,24.0,0.,24.0,0.,24.0
1979-07-15 15:16:56.120 ,6,1,0.,24.0,0.,24.0,0.,24.0,0.,24.0
1979-07-15 15:17:20.110 ,6,0,0.,24.0,0.,24.0,0.,24.0,0.,24.0
1979-07-15 15:17:44.110 ,7,1,0.,24.0,0.,24.0,0.,24.0,0.,24.0
1979-07-15 15:18:08.110 ,7,0,0.,24.0,0.,24.0,0.,24.0,0.,24.0
1979-07-15 15:18:32.110 ,7,1,0.,24.0,0.,24.0,0.,24.0,0.,24.0
1979-07-15 15:18:56.110 ,7,0,0.,24.0,0.,24.0,0.,24.0,0.,24.0
1979-07-15 15:19:20.110 ,6,1,0.,24.0,0.,24.0,0.,24.0,0.,24.0
1979-07-15 15:20:08.110 ,5,1,0.,24.0,0.,24.0,0.,24.0,0.,24.0
1979-07-15 15:20:32.110 ,5,0,0.,24.0,0.,24.0,0.,24.0,0.,24.0
1979-07-15 15:20:56.110 ,4,1,0.,24.0,0.,24.0,0.,24.0,0.,24.0
1979-07-15 15:21:20.110 ,4,0,0.,24.0,0.,24.0,0.,24.0,0.,24.0
1979-07-15 15:21:44.110 ,3,1,0.,24.0,0.,24.0,0.,24.0,0.,24.0
1979-07-15 15:22:08.110 ,3,0,0.,24.0,0.,24.0,0.,24.0,0.,24.0
1979-07-15 15:22:32.110 ,2,1,0.,24.0,0.,24.0,0.,24.0,0.,24.0
1979-07-15 15:22:56.110 ,2,0,0.,24.0,0.,24.0,0.,24.0,0.,24.0
1979-07-15 15:23:20.110 ,1,1,0.,24.0,0.,24.0,0.,24.0,0.,24.0
1979-07-15 15:23:44.110 ,1,0,0.,24.0,0.,24.0,0.,24.0,0.,24.0
1979-07-15 15:24:08.110 ,0,1,0.,24.0,0.,24.0,0.,24.0,0.,24.0
1979-07-15 15:24:32.110 ,0,0,0.,24.0,0.,24.0,0.,24.0,0.,24.0
1979-07-15 15:24:56.110 ,0,1,0.,24.0,0.,24.0,0.,24.0,0.,24.0
1979-07-15 15:25:20.110 ,0,0,0.,24.0,0.,24.0,0.,24.0,0.,24.0
1979-07-15 15:25:44.110 ,1,1,0.,24.0,0.,24.0,0.,24.0,0.,24.0
1979-07-15 15:26:08.110 ,1,0,0.,24.0,0.,24.0,0.,24.0,0.,24.0
1979-07-15 15:26:32.110 ,2,1,0.,24.0,0.,24.0,0.,24.0,0.,24.0
1979-07-15 15:26:56.110 ,2,0,0.,24.0,0.,24.0,0.,24.0,0.,24.0
1979-07-15 15:27:20.110 ,3,1,0.,24.0,0.,24.0,0.,24.0,0.,24.0
1979-07-15 15:27:44.110 ,3,0,0.,24.0,0.,24.0,0.,24.0,0.,24.0
1979-07-15 15:28:08.110 ,4,1,0.,24.0,0.,24.0,0.,24.0,0.,24.0
1979-07-15 15:28:32.110 ,4,0,0.,24.0,0.,24.0,0.,24.0,0.,24.0
1979-07-15 15:28:56.110 ,5,1,0.,24.0,0.,24.0,0.,24.0,0.,24.0
1979-07-15 15:29:20.110 ,5,0,0.,24.0,0.,24.0,0.,24.0,0.,24.0
1979-07-15 15:29:44.110 ,6,1,0.,24.0,0.,24.0,0.,24.0,0.,24.0
1979-07-15 15:30:08.110 ,6,0,0.,24.0,0.,24.0,0.,24.0,0.,24.0
1979-07-15 15:30:32.110 ,7,0,0.,24.0,0.,24.0,0.,24.0,0.,24.0
1979-07-15 15:30:56.110 ,7,0,0.,24.0,0.,24.0,0.,24.0,0.,24.0
1979-07-15 15:31:20.110 ,5,1,0.,24.0,0.,24.0,0.,24.0,0.,24.0
1979-07-15 15:31:44.110 ,1,1,0.,24.0,0.,24.0,0.,24.0,0.,24.0
1979-07-15 15:32:08.110 ,2,1,0.,24.0,0.,24.0,0.,24.0,0.,24.0
1979-07-15 15:32:32.110 ,6,1,0.,24.0,0.,24.0,0.,24.0,0.,24.0
1979-07-15 15:32:56.110 ,5,1,0.,24.0,0.,24.0,0.,24.0,0.,24.0
1979-07-15 15:33:20.110 ,1,1,0.,24.0,0.,24.0,0.,24.0,0.,24.0
1979-07-15 15:33:44.110 ,2,1,0.,24.0,0.,24.0,0.,24.0,0.,24.0
1979-07-15 15:34:08.110 ,6,1,0.,24.0,0.,24.0,0.,24.0,0.,24.0
1979-07-15 15:34:32.110 ,5,1,0.,24.0,0.,24.0,0.,24.0,0.,24.0
1979-07-15 15:34:56.110 ,1,1,0.,24.0,0.,24.0,0.,24.0,0.,24.0
1979-07-15 15:35:20.110 ,2,1,0.,24.0,0.,24.0,0.,24.0,0.,24.0
1979-07-15 15:35:44.110 ,6,1,0.,24.0,0.,24.0,0.,24.0,0.,24.0
1979-07-15 15:36:08.110 ,5,1,0.,24.0,0.,24.0,0.,24.0,0.,24.0
1979-07-15 15:36:32.110 ,1,1,0.,24.0,0.,24.0,0.,24.0,0.,24.0
1979-07-15 15:36:56.110 ,2,1,0.,24.0,0.,24.0,0.,24.0,0.,24.0
1979-07-15 15:37:20.110 ,6,1,0.,24.0,0.,24.0,0.,24.0,0.,24.0
1979-07-15 15:37:44.110 ,5,1,0.,24.0,0.,24.0,0.,24.0,0.,24.0
1979-07-15 15:38:08.110 ,1,1,0.,24.0,0.,24.0,0.,24.0,0.,24.0
1979-07-15 15:38:32.110 ,2,1,0.,24.0,0.,24.0,0.,24.0,0.,24.0
1979-07-15 15:38:56.110 ,6,1,0.,24.0,0.,24.0,0.,24.0,0.,24.0
1979-07-15 15:39:20.110 ,5,1,0.,24.0,0.,24.0,0.,24.0,0.,24.0
1979-07-15 15:39:44.110 ,1,1,0.,24.0,0.,24.0,0.,24.0,0.,24.0
1979-07-15 15:40:08.110 ,2,1,0.,24.0,0.,24.0,0.,24.0,0.,24.0
1979-07-15 15:40:32.110 ,6,1,0.,24.0,0.,24.0,0.,24.0,0.,24.0
1979-07-15 15:40:56.110 ,5,1,0.,24.0,0.,24.0,0.,24.0,0.,24.0
1979-07-15 15:41:20.110 ,1,1,0.,24.0,0.,24.0,0.,24.0,0.,24.0
1979-07-15 15:41:44.110 ,0,0,0.,24.0,0.,24.0,0.,24.0,0.,24.0
1979-07-15 15:42:08.110 ,0,0,0.,24.0,0.,24.0,0.,24.0,0.,24.0
1979-07-15 15:42:32.110 ,5,1,0.,24.0,0.,24.0,0.,24.0,0.,24.0
1979-07-15 15:42:56.110 ,5,0,0.,24.0,0.,24.0,0.,24.0,0.,24.0
1979-07-15 15:43:20.110 ,4,1,0.,24.0,0.,24.0,0.,24.0,0.,24.0
1979-07-15 15:43:44.110 ,4,0,0.,24.0,0.,24.0,0.,24.0,0.,24.0
1979-07-15 15:44:08.110 ,3,1,0.,24.0,0.,24.0,0.,24.0,0.,24.0
1979-07-15 15:44:32.110 ,3,0,0.,24.0,0.,24.0,0.,24.0,0.,24.0
1979-07-15 15:44:56.110 ,2,1,0.,24.0,0.,24.0,0.,24.0,0.,24.0
1979-07-15 15:45:20.110 ,2,0,0.,24.0,0.,24.0,0.,24.0,0.,24.0
1979-07-15 15:45:44.110 ,1,1,0.,24.0,0.,24.0,0.,24.0,0.,24.0
1979-07-15 15:46:08.110 ,1,0,0.,24.0,0.,24.0,0.,24.0,0.,24.0
1979-07-15 15:46:32.110 ,0,1,0.,24.0,0.,24.0,0.,24.0,0.,24.0
1979-07-15 15:46:56.110 ,0,0,0.,24.0,0.,24.0,0.,24.0,0.,24.0
1979-07-15 15:47:20.110 ,0,1,0.,24.0,0.,24.0,0.,24.0,0.,24.0
1979-07-15 15:47:44.110 ,0,0,0.,24.0,0.,24.0,0.,24.0,0.,24.0
1979-07-15 15:48:08.110 ,1,1,0.,24.0,0.,24.0,0.,24.0,0.,24.0
1979-07-15 15:48:32.110 ,1,0,0.,24.0,0.,24.0,0.,24.0,0.,24.0
1979-07-15 15:48:56.110 ,2,1,0.,24.0,0.,24.0,0.,24.0,0.,24.0
1979-07-15 15:49:20.110 ,2,0,0.,24.0,0.,24.0,0.,24.0,0.,24.0
1979-07-15 15:49:44.110 ,3,1,0.,24.0,0.,24.0,0.,24.0,0.,24.0
1979-07-15 15:50:08.110 ,3,0,0.,24.0,0.,24.0,0.,24.0,0.,24.0
1979-07-15 15:50:32.110 ,4,1,0.,24.0,0.,24.0,0.,24.0,0.,24.0
1979-07-15 15:50:56.110 ,4,0,0.,24.0,0.,24.0,0.,24.0,0.,24.0
1979-07-15 15:51:20.110 ,5,1,0.,24.0,0.,24.0,0.,24.0,0.,24.0
1979-07-15 15:51:44.110 ,5,0,0.,24.0,0.,24.0,0.,24.0,0.,24.0
1979-07-15 15:52:08.110 ,6,1,0.,24.0,0.,24.0,0.,24.0,0.,24.0
1979-07-15 15:52:32.110 ,6,0,0.,24.0,0.,24.0,0.,24.0,0.,24.0
1979-07-15 15:52:56.110 ,7,1,0.,24.0,0.,24.0,0.,24.0,0.,24.0
1979-07-15 15:53:20.110 ,7,0,0.,24.0,0.,24.0,0.,24.0,0.,24.0
1979-07-15 15:53:44.110 ,7,1,0.,24.0,0.,24.0,0.,24.0,0.,24.0
1979-07-15 15:54:08.110 ,7,0,0.,24.0,0.,24.0,0.,24.0,0.,24.0
1979-07-15 15:54:32.110 ,6,1,0.,24.0,0.,24.0,0.,24.0,0.,24.0
1979-07-15 15:54:56.110 ,6,0,0.,24.0,0.,24.0,0.,24.0,0.,24.0
1979-07-15 15:55:20.110 ,5,1,0.,24.0,0.,24.0,0.,24.0,0.,24.0
1979-07-15 15:55:44.110 ,5,0,0.,24.0,0.,24.0,0.,24.0,0.,24.0
1979-07-15 15:56:08.110 ,4,1,0.,24.0,0.,24.0,0.,24.0,0.,24.0
1979-07-15 15:56:32.110 ,4,0,0.,24.0,0.,24.0,0.,24.0,0.,24.0
1979-07-15 15:56:56.110 ,3,1,0.,24.0,0.,24.0,0.,24.0,0.,24.0
1979-07-15 15:57:20.110 ,3,0,0.,24.0,0.,24.0,0.,24.0,0.,24.0
1979-07-15 15:57:44.110 ,2,1,0.,24.0,0.,24.0,0.,24.0,0.,24.0
1979-07-15 15:58:08.110 ,2,0,0.,24.0,0.,24.0,0.,24.0,0.,24.0
1979-07-15 15:58:32.110 ,1,1,0.,24.0,0.,24.0,0.,24.0,0.,24.0
1979-07-15 15:58:56.110 ,1,0,0.,24.0,0.,24.0,0.,24.0,0.,24.0
1979-07-15 15:59:20.110 ,0,1,0.,24.0,0.,24.0,0.,24.0,0.,24.0
1979-07-15 15:59:44.110 ,0,0,0.,24.0,0.,24.0,0.,24.0,0.,24.0
1979-07-15 16:00:08.110 ,0,1,0.,24.0,0.,24.0,0.,24.0,0.,24.0
1979-07-15 16:00:32.110 ,0,0,0.,24.0,0.,24.0,0.,24.0,0.,24.0
1979-07-15 16:00:56.110 ,1,1,0.,24.0,0.,24.0,0.,24.0,0.,24.0
1979-07-15 16:01:20.110 ,1,0,0.,24.0,0.,24.0,0.,24.0,0.,24.0
1979-07-15 16:01:44.110 ,2,1,0.,24.0,0.,24.0,0.,24.0,0.,24.0
1979-07-15 16:02:08.110 ,2,0,0.,24.0,0.,24.0,0.,24.0,0.,24.0
1979-07-15 16:02:32.110 ,3,1,0.,24.0,0.,24.0,0.,24.0,0.,24.0
1979-07-15 16:02:56.110 ,3,0,0.,24.0,0.,24.0,0.,24.0,0.,24.0
1979-07-15 16:03:44.110 ,4,0,0.,24.0,0.,24.0,0.,24.0,0.,24.0
1979-07-15 16:04:08.110 ,5,1,0.,24.0,0.,24.0,0.,24.0,0.,24.0
1979-07-15 16:04:32.110 ,5,0,0.,24.0,0.,24.0,0.,24.0,0.,24.0
1979-07-15 16:04:56.110 ,6,1,0.,24.0,0.,24.0,0.,24.0,0.,24.0
1979-07-15 16:05:20.110 ,6,0,0.,24.0,0.,24.0,0.,24.0,0.,24.0
1979-07-15 16:05:44.110 ,7,1,0.,24.0,0.,24.0,0.,24.0,0.,24.0
1979-07-15 16:06:08.110 ,7,0,0.,24.0,0.,24.0,0.,24.0,0.,24.0
1979-07-15 16:06:32.110 ,7,1,0.,24.0,0.,24.0,0.,24.0,0.,24.0
1979-07-15 16:06:56.110 ,7,0,0.,24.0,0.,24.0,0.,24.0,0.,24.0
1979-07-15 16:07:20.110 ,6,1,0.,24.0,0.,24.0,0.,24.0,0.,24.0
1979-07-15 16:07:44.110 ,6,0,0.,24.0,0.,24.0,0.,24.0,0.,24.0
1979-07-15 16:08:08.110 ,5,1,0.,24.0,0.,24.0,0.,24.0,0.,24.0
1979-07-15 16:08:32.110 ,5,0,0.,24.0,0.,24.0,0.,24.0,0.,24.0
1979-07-15 16:08:56.110 ,4,1,0.,24.0,0.,24.0,0.,24.0,0.,24.0
1979-07-15 16:09:20.110 ,4,0,0.,24.0,0.,24.0,0.,24.0,0.,24.0
1979-07-15 16:09:44.110 ,3,1,0.,24.0,0.,24.0,0.,24.0,0.,24.0
1979-07-15 16:10:08.110 ,3,0,0.,24.0,0.,24.0,0.,24.0,0.,24.0
1979-07-15 16:10:32.110 ,2,1,0.,24.0,0.,24.0,0.,24.0,0.,24.0
1979-07-15 16:10:56.110 ,2,0,0.,24.0,0.,24.0,0.,24.0,0.,24.0
1979-07-15 16:11:20.110 ,1,1,0.,24.0,0.,24.0,0.,24.0,0.,24.0
1979-07-15 16:11:44.110 ,1,0,0.,24.0,0.,24.0,0.,24.0,0.,24.0
1979-07-15 16:12:08.110 ,0,1,0.,24.0,0.,24.0,0.,24.0,0.,24.0
1979-07-15 16:12:32.110 ,0,0,0.,24.0,0.,24.0,0.,24.0,0.,24.0
1979-07-15 16:12:56.110 ,0,1,0.,24.0,0.,24.0,0.,24.0,0.,24.0
1979-07-15 16:13:20.110 ,0,0,0.,24.0,0.,24.0,0.,24.0,0.,24.0
1979-07-15 16:13:44.110 ,1,1,0.,24.0,0.,24.0,0.,24.0,0.,24.0
1979-07-15 16:14:08.110 ,1,0,0.,24.0,0.,24.0,0.,24.0,0.,24.0
1979-07-15 16:14:32.110 ,2,1,0.,24.0,0.,24.0,0.,24.0,0.,24.0
1979-07-15 16:14:56.110 ,2,0,0.,24.0,0.,24.0,0.,24.0,0.,24.0
1979-07-15 16:15:20.110 ,3,1,0.,24.0,0.,24.0,0.,24.0,0.,24.0
1979-07-15 16:15:44.110 ,3,0,0.,24.0,0.,24.0,0.,24.0,0.,24.0
1979-07-15 16:16:08.110 ,4,1,0.,24.0,0.,24.0,0.,24.0,0.,24.0
1979-07-15 16:16:32.110 ,4,0,0.,24.0,0.,24.0,0.,24.0,0.,24.0
1979-07-15 16:16:56.110 ,5,1,0.,24.0,0.,24.0,0.,24.0,0.,24.0
1979-07-15 16:17:20.110 ,5,0,0.,24.0,0.,24.0,0.,24.0,0.,24.0
1979-07-15 16:17:44.110 ,6,1,0.,24.0,0.,24.0,0.,24.0,0.,24.0
1979-07-15 16:18:08.110 ,6,0,0.,24.0,0.,24.0,0.,24.0,0.,24.0
1979-07-15 16:18:32.110 ,7,0,0.,24.0,0.,24.0,0.,24.0,0.,24.0
1979-07-15 16:18:56.110 ,7,0,0.,24.0,0.,24.0,0.,24.0,0.,24.0
1979-07-15 16:19:20.110 ,5,1,0.,24.0,0.,24.0,0.,24.0,0.,24.0
1979-07-15 16:19:44.110 ,1,1,0.,24.0,0.,24.0,0.,24.0,0.,24.0
1979-07-15 16:20:08.110 ,2,1,0.,24.0,0.,24.0,0.,24.0,0.,24.0
1979-07-15 16:20:32.110 ,6,1,0.,24.0,0.,24.0,0.,24.0,0.,24.0
1979-07-15 16:20:56.110 ,5,1,0.,24.0,0.,24.0,0.,24.0,0.,24.0
1979-07-15 16:21:20.110 ,1,1,0.,24.0,0.,24.0,0.,24.0,0.,24.0
1979-07-15 16:21:44.110 ,2,1,0.,24.0,0.,24.0,0.,24.0,0.,24.0
1979-07-15 16:22:08.110 ,6,1,0.,24.0,0.,24.0,0.,24.0,0.,24.0
1979-07-15 16:22:32.110 ,5,1,0.,24.0,0.,24.0,0.,24.0,0.,24.0
1979-07-15 16:22:56.110 ,1,1,0.,24.0,0.,24.0,0.,24.0,0.,24.0
1979-07-15 16:23:20.110 ,2,1,0.,24.0,0.,24.0,0.,24.0,0.,24.0
1979-07-15 16:23:44.110 ,6,1,0.,24.0,0.,24.0,0.,24.0,0.,24.0
1979-07-15 16:24:08.110 ,5,1,0.,24.0,0.,24.0,0.,24.0,0.,24.0
1979-07-15 16:24:32.110 ,1,1,0.,24.0,0.,24.0,0.,24.0,0.,24.0
1979-07-15 16:25:44.110 ,5,1,0.,24.0,0.,24.0,0.,24.0,0.,24.0
1979-07-15 16:26:08.110 ,1,1,0.,24.0,0.,24.0,0.,24.0,0.,24.0
1979-07-15 16:26:32.110 ,2,1,0.,24.0,0.,24.0,0.,24.0,0.,24.0
1979-07-15 16:26:56.110 ,6,1,0.,24.0,0.,24.0,0.,24.0,0.,24.0
1979-07-15 16:27:20.110 ,5,1,0.,24.0,0.,24.0,0.,24.0,0.,24.0
1979-07-15 16:27:44.110 ,1,1,0.,24.0,0.,24.0,0.,24.0,0.,24.0
1979-07-15 16:28:08.110 ,2,1,0.,24.0,0.,24.0,0.,24.0,0.,24.0
1979-07-15 16:28:32.110 ,6,1,0.,24.0,0.,24.0,0.,24.0,0.,24.0
1979-07-15 16:28:56.110 ,5,1,0.,24.0,0.,24.0,0.,24.0,0.,24.0
1979-07-15 16:29:20.110 ,1,1,0.,24.0,0.,24.0,0.,24.0,0.,24.0
1979-07-15 16:29:44.110 ,0,0,0.,24.0,0.,24.0,0.,24.0,0.,24.0
1979-07-15 16:30:08.110 ,0,0,0.,24.0,0.,24.0,0.,24.0,0.,24.0
1979-07-15 16:30:32.110 ,5,1,0.,24.0,0.,24.0,0.,24.0,0.,24.0
1979-07-15 16:30:56.110 ,5,0,0.,24.0,0.,24.0,0.,24.0,0.,24.0
1979-07-15 16:31:20.110 ,4,1,0.,24.0,0.,24.0,0.,24.0,0.,24.0
1979-07-15 16:31:44.110 ,4,0,0.,24.0,0.,24.0,0.,24.0,0.,24.0
1979-07-15 16:32:08.110 ,3,1,0.,24.0,0.,24.0,0.,24.0,0.,24.0
1979-07-15 16:32:32.110 ,3,0,0.,24.0,0.,24.0,0.,24.0,0.,24.0
1979-07-15 16:32:56.110 ,2,1,0.,24.0,0.,24.0,0.,24.0,0.,24.0
1979-07-15 16:33:20.110 ,2,0,0.,24.0,0.,24.0,0.,24.0,0.,24.0
1979-07-15 16:33:44.110 ,1,1,0.,24.0,0.,24.0,0.,24.0,0.,24.0
1979-07-15 16:34:08.110 ,1,0,0.,24.0,0.,24.0,0.,24.0,0.,24.0
1979-07-15 16:34:32.110 ,0,1,0.,24.0,0.,24.0,0.,24.0,0.,24.0
1979-07-15 16:34:56.110 ,0,0,0.,24.0,0.,24.0,0.,24.0,0.,24.0
1979-07-15 16:35:20.110 ,0,1,0.,24.0,0.,24.0,0.,24.0,0.,24.0
1979-07-15 16:35:44.110 ,0,0,0.,24.0,0.,24.0,0.,24.0,0.,24.0
1979-07-15 16:36:08.110 ,1,1,0.,24.0,0.,24.0,0.,24.0,0.,24.0
1979-07-15 16:36:32.110 ,1,0,0.,24.0,0.,24.0,0.,24.0,0.,24.0
1979-07-15 16:36:56.110 ,2,1,0.,24.0,0.,24.0,0.,24.0,0.,24.0
1979-07-15 16:37:20.110 ,2,0,0.,24.0,0.,24.0,0.,24.0,0.,24.0
1979-07-15 16:37:44.110 ,3,1,0.,24.0,0.,24.0,0.,24.0,0.,24.0
1979-07-15 16:38:08.110 ,3,0,0.,24.0,0.,24.0,0.,24.0,0.,24.0
1979-07-15 16:38:32.110 ,4,1,0.,24.0,0.,24.0,0.,24.0,0.,24.0
1979-07-15 16:38:56.110 ,4,0,0.,24.0,0.,24.0,0.,24.0,0.,24.0
1979-07-15 16:39:20.110 ,5,1,0.,24.0,0.,24.0,0.,24.0,0.,24.0
1979-07-15 16:39:44.110 ,5,0,0.,24.0,0.,24.0,0.,24.0,0.,24.0
1979-07-15 16:40:08.110 ,6,1,0.,24.0,0.,24.0,0.,24.0,0.,24.0
1979-07-15 16:40:32.110 ,6,0,0.,24.0,0.,24.0,0.,24.0,0.,24.0
1979-07-15 16:40:56.110 ,7,1,0.,24.0,0.,24.0,0.,24.0,0.,24.0
1979-07-15 16:41:20.110 ,7,0,0.,24.0,0.,24.0,0.,24.0,0.,24.0
1979-07-15 16:41:44.110 ,7,1,0.,24.0,0.,24.0,0.,24.0,0.,24.0
1979-07-15 16:42:08.110 ,7,0,0.,24.0,0.,24.0,0.,24.0,0.,24.0
1979-07-15 16:42:32.110 ,6,1,0.,24.0,0.,24.0,0.,24.0,0.,24.0
1979-07-15 16:42:56.110 ,6,0,0.,24.0,0.,24.0,0.,24.0,0.,24.0
1979-07-15 16:43:20.110 ,5,1,0.,24.0,0.,24.0,0.,24.0,0.,24.0
1979-07-15 16:43:44.110 ,5,0,0.,24.0,0.,24.0,0.,24.0,0.,24.0
1979-07-15 16:44:08.110 ,4,1,0.,24.0,0.,24.0,0.,24.0,0.,24.0
1979-07-15 16:44:32.110 ,4,0,0.,24.0,0.,24.0,0.,24.0,0.,24.0
1979-07-15 16:44:56.110 ,3,1,0.,24.0,0.,24.0,0.,24.0,0.,24.0
1979-07-15 16:45:20.110 ,3,0,0.,24.0,0.,24.0,0.,24.0,0.,24.0
1979-07-15 16:45:44.110 ,2,1,0.,24.0,0.,24.0,0.,24.0,0.,24.0
1979-07-15 16:46:08.110 ,2,0,0.,24.0,0.,24.0,0.,24.0,0.,24.0
1979-07-15 16:46:32.110 ,1,1,0.,24.0,0.,24.0,0.,24.0,0.,24.0
1979-07-15 16:46:56.110 ,1,0,0.,24.0,0.,24.0,0.,24.0,0.,24.0
1979-07-15 16:47:20.110 ,0,1,0.,24.0,0.,24.0,0.,24.0,0.,24.0
1979-07-15 16:47:44.110 ,0,0,0.,24.0,0.,24.0,0.,24.0,0.,24.0
1979-07-15 16:48:08.110 ,0,1,0.,24.0,0.,24.0,0.,24.0,0.,24.0
1979-07-15 16:48:32.110 ,0,0,0.,24.0,0.,24.0,0.,24.0,0.,24.0
1979-07-15 16:49:20.110 ,1,0,0.,24.0,0.,24.0,0.,24.0,0.,24.0
1979-07-15 16:49:44.110 ,2,1,0.,24.0,0.,24.0,0.,24.0,0.,24.0
1979-07-15 16:50:08.110 ,2,0,0.,24.0,0.,24.0,0.,24.0,0.,24.0
1979-07-15 16:50:32.110 ,3,1,0.,24.0,0.,24.0,0.,24.0,0.,24.0
1979-07-15 16:50:56.110 ,3,0,0.,24.0,0.,24.0,0.,24.0,0.,24.0
1979-07-15 16:51:20.110 ,4,1,0.,24.0,0.,24.0,0.,24.0,0.,24.0
1979-07-15 16:51:44.110 ,4,0,0.,24.0,0.,24.0,0.,24.0,0.,24.0
1979-07-15 16:52:08.110 ,0,0,0.,24.0,0.,24.0,0.,24.0,0.,24.0
1979-07-15 16:52:32.110 ,0,0,0.,24.0,0.,24.0,0.,24.0,0.,24.0
1979-07-15 16:52:56.110 ,6,1,0.,24.0,0.,24.0,0.,24.0,0.,24.0
1979-07-15 16:53:20.110 ,6,0,0.,24.0,0.,24.0,0.,24.0,0.,24.0
1979-07-15 16:53:44.110 ,7,1,0.,24.0,0.,24.0,0.,24.0,0.,24.0
1979-07-15 16:54:08.110 ,7,0,0.,24.0,0.,24.0,0.,24.0,0.,24.0
1979-07-15 16:54:32.110 ,7,1,0.,24.0,0.,24.0,0.,24.0,0.,24.0
1979-07-15 16:54:56.110 ,7,0,0.,24.0,0.,24.0,0.,24.0,0.,24.0
1979-07-15 16:55:20.110 ,6,1,0.,24.0,0.,24.0,0.,24.0,0.,24.0
1979-07-15 16:55:44.110 ,6,0,0.,24.0,0.,24.0,0.,24.0,0.,24.0
1979-07-15 16:56:08.110 ,5,1,0.,24.0,0.,24.0,0.,24.0,0.,24.0
1979-07-15 16:56:32.110 ,5,0,0.,24.0,0.,24.0,0.,24.0,0.,24.0
1979-07-15 16:56:56.110 ,4,1,0.,24.0,0.,24.0,0.,24.0,0.,24.0
1979-07-15 16:57:20.110 ,4,0,0.,24.0,0.,24.0,0.,24.0,0.,24.0
1979-07-15 16:57:44.110 ,3,1,0.,24.0,0.,24.0,0.,24.0,0.,24.0
1979-07-15 16:58:08.110 ,3,0,0.,24.0,0.,24.0,0.,24.0,0.,24.0
1979-07-15 16:58:32.110 ,2,1,0.,24.0,0.,24.0,0.,24.0,0.,24.0
1979-07-15 16:58:56.110 ,2,0,0.,24.0,0.,24.0,0.,24.0,0.,24.0
1979-07-15 16:59:20.110 ,1,1,0.,24.0,0.,24.0,0.,24.0,0.,24.0
1979-07-15 16:59:44.110 ,1,0,0.,24.0,0.,24.0,0.,24.0,0.,24.0
1979-07-15 17:00:08.110 ,0,1,0.,24.0,0.,24.0,0.,24.0,0.,24.0
1979-07-15 17:00:32.110 ,0,0,0.,24.0,0.,24.0,0.,24.0,0.,24.0
1979-07-15 17:00:56.110 ,0,1,0.,24.0,0.,24.0,0.,24.0,0.,24.0
1979-07-15 17:01:20.110 ,0,0,0.,24.0,0.,24.0,0.,24.0,0.,24.0
1979-07-15 17:01:44.110 ,1,1,0.,24.0,0.,24.0,0.,24.0,0.,24.0
1979-07-15 17:02:08.110 ,1,0,0.,24.0,0.,24.0,0.,24.0,0.,24.0
1979-07-15 17:02:32.110 ,2,1,0.,24.0,0.,24.0,0.,24.0,0.,24.0
1979-07-15 17:02:56.110 ,2,0,0.,24.0,0.,24.0,0.,24.0,0.,24.0
1979-07-15 17:03:20.110 ,3,1,0.,24.0,0.,24.0,0.,24.0,0.,24.0
1979-07-15 17:03:44.110 ,3,0,0.,24.0,0.,24.0,0.,24.0,0.,24.0
1979-07-15 17:04:08.110 ,4,1,0.,24.0,0.,24.0,0.,24.0,0.,24.0
1979-07-15 17:04:32.110 ,4,0,0.,24.0,0.,24.0,0.,24.0,0.,24.0
1979-07-15 17:04:56.110 ,5,1,0.,24.0,0.,24.0,0.,24.0,0.,24.0
1979-07-15 17:05:20.110 ,5,0,0.,24.0,0.,24.0,0.,24.0,0.,24.0
1979-07-15 17:05:44.110 ,6,1,0.,24.0,0.,24.0,0.,24.0,0.,24.0
1979-07-15 17:06:08.110 ,6,0,0.,24.0,0.,24.0,0.,24.0,0.,24.0
1979-07-15 17:06:32.110 ,7,0,0.,24.0,0.,24.0,0.,24.0,0.,24.0
1979-07-15 17:06:56.110 ,7,0,0.,24.0,0.,24.0,0.,24.0,0.,24.0
1979-07-15 17:07:20.110 ,5,1,0.,24.0,0.,24.0,0.,24.0,0.,24.0
1979-07-15 17:07:44.110 ,1,1,0.,24.0,0.,24.0,0.,24.0,0.,24.0
1979-07-15 17:08:08.110 ,2,1,0.,24.0,0.,24.0,0.,24.0,0.,24.0
1979-07-15 17:08:32.110 ,6,1,0.,24.0,0.,24.0,0.,24.0,0.,24.0
1979-07-15 17:08:56.110 ,5,1,0.,24.0,0.,24.0,0.,24.0,0.,24.0
1979-07-15 17:09:20.110 ,1,1,0.,24.0,0.,24.0,0.,24.0,0.,24.0
1979-07-15 17:09:44.110 ,2,1,0.,24.0,0.,24.0,0.,24.0,0.,24.0
1979-07-15 17:10:08.110 ,6,1,0.,24.0,0.,24.0,0.,24.0,0.,24.0
1979-07-15 17:10:32.110 ,5,1,0.,24.0,0.,24.0,0.,24.0,0.,24.0
1979-07-15 17:10:56.110 ,1,1,0.,24.0,0.,24.0,0.,24.0,0.,24.0
1979-07-15 17:11:20.110 ,2,1,0.,24.0,0.,24.0,0.,24.0,0.,24.0
1979-07-15 17:11:44.110 ,6,1,0.,24.0,0.,24.0,0.,24.0,0.,24.0
1979-07-15 17:12:08.110 ,5,1,0.,24.0,0.,24.0,0.,24.0,0.,24.0
1979-07-15 17:12:32.110 ,1,1,0.,24.0,0.,24.0,0.,24.0,0.,24.0
1979-07-15 17:12:56.110 ,2,1,0.,24.0,0.,24.0,0.,24.0,0.,24.0
1979-07-15 17:13:20.110 ,6,1,0.,24.0,0.,24.0,0.,24.0,0.,24.0
1979-07-15 17:13:44.110 ,5,1,0.,24.0,0.,24.0,0.,24.0,0.,24.0
1979-07-15 17:14:08.110 ,1,1,0.,24.0,0.,24.0,0.,24.0,0.,24.0
1979-07-15 17:14:32.110 ,2,1,0.,24.0,0.,24.0,0.,24.0,0.,24.0
1979-07-15 17:14:56.110 ,6,1,0.,24.0,0.,24.0,0.,24.0,0.,24.0
1979-07-15 17:15:20.110 ,5,1,0.,24.0,0.,24.0,0.,24.0,0.,24.0
1979-07-15 17:15:44.110 ,1,1,0.,24.0,0.,24.0,0.,24.0,0.,24.0
1979-07-15 17:16:08.110 ,2,1,0.,24.0,0.,24.0,0.,24.0,0.,24.0
1979-07-15 17:16:32.110 ,6,1,0.,24.0,0.,24.0,0.,24.0,0.,24.0
1979-07-15 17:16:56.110 ,5,1,0.,24.0,0.,24.0,0.,24.0,0.,24.0
1979-07-15 17:17:20.110 ,1,1,0.,24.0,0.,24.0,0.,24.0,0.,24.0
1979-07-15 17:17:44.110 ,0,0,0.,24.0,0.,24.0,0.,24.0,0.,24.0
1979-07-15 17:18:08.110 ,0,0,0.,24.0,0.,24.0,0.,24.0,0.,24.0
1979-07-15 17:18:32.110 ,5,1,0.,24.0,0.,24.0,0.,24.0,0.,24.0
1979-07-15 17:18:56.110 ,5,0,0.,24.0,0.,24.0,0.,24.0,0.,24.0
1979-07-15 17:19:20.110 ,4,1,0.,24.0,0.,24.0,0.,24.0,0.,24.0
1979-07-15 17:19:44.110 ,4,0,0.,24.0,0.,24.0,0.,24.0,0.,24.0
1979-07-15 17:20:08.110 ,3,1,0.,24.0,0.,24.0,0.,24.0,0.,24.0
1979-07-15 17:20:32.110 ,3,0,0.,24.0,0.,24.0,0.,24.0,0.,24.0
1979-07-15 17:20:56.110 ,2,1,0.,24.0,0.,24.0,0.,24.0,0.,24.0
1979-07-15 17:21:20.110 ,2,0,0.,24.0,0.,24.0,0.,24.0,0.,24.0
1979-07-15 17:21:44.110 ,1,1,0.,24.0,0.,24.0,0.,24.0,0.,24.0
1979-07-15 17:22:08.110 ,1,0,0.,24.0,0.,24.0,0.,24.0,0.,24.0
1979-07-15 17:22:32.110 ,0,1,0.,24.0,0.,24.0,0.,24.0,0.,24.0
1979-07-15 17:22:56.110 ,0,0,0.,24.0,0.,24.0,0.,24.0,0.,24.0
1979-07-15 17:23:20.110 ,0,1,0.,24.0,0.,24.0,0.,24.0,0.,24.0
1979-07-15 17:23:44.110 ,0,0,0.,24.0,0.,24.0,0.,24.0,0.,24.0
1979-07-15 17:24:08.110 ,1,1,0.,24.0,0.,24.0,0.,24.0,0.,24.0
1979-07-15 17:24:32.110 ,1,0,0.,24.0,0.,24.0,0.,24.0,0.,24.0
1979-07-15 17:24:56.110 ,2,1,0.,24.0,0.,24.0,0.,24.0,0.,24.0
1979-07-15 17:25:20.110 ,2,0,0.,24.0,0.,24.0,0.,24.0,0.,24.0
1979-07-15 17:25:44.110 ,3,1,0.,24.0,0.,24.0,0.,24.0,0.,24.0
1979-07-15 17:26:08.110 ,3,0,0.,24.0,0.,24.0,0.,24.0,0.,24.0
1979-07-15 17:26:32.110 ,4,1,0.,24.0,0.,24.0,0.,24.0,0.,24.0
1979-07-15 17:26:56.110 ,4,0,0.,24.0,0.,24.0,0.,24.0,0.,24.0
1979-07-15 17:27:20.110 ,0,0,0.,24.0,0.,24.0,0.,24.0,0.,24.0
1979-07-15 17:27:44.110 ,0,0,,0,,0,,0,,0
1979-07-15 17:27:44.110 ,0,0,0.,24.0,0.,24.0,0.,24.0,0.,24.0
1979-07-15 17:27:54.310 ,0,0,,0,,0,,0,,0
1979-07-15 17:28:08.110 ,6,1,0.,24.0,0.,24.0,0.,24.0,0.,24.0
1979-07-15 17:28:32.110 ,6,0,0.,24.0,0.,24.0,0.,24.0,0.,24.0
1979-07-15 17:28:56.110 ,7,1,0.,24.0,0.,24.0,0.,24.0,0.,24.0
1979-07-15 17:29:20.110 ,7,0,0.,24.0,0.,24.0,0.,24.0,0.,24.0
1979-07-15 17:29:44.110 ,7,1,0.,24.0,0.,24.0,0.,24.0,0.,24.0
1979-07-15 17:30:08.110 ,7,0,0.,24.0,0.,24.0,0.,24.0,0.,24.0
1979-07-15 17:30:32.110 ,6,1,0.,24.0,0.,24.0,0.,24.0,0.,24.0
1979-07-15 17:30:56.110 ,6,0,0.,24.0,0.,24.0,0.,24.0,0.,24.0
1979-07-15 17:31:20.110 ,5,1,0.,24.0,0.,24.0,0.,24.0,0.,24.0
1979-07-15 17:31:44.110 ,5,0,0.,24.0,0.,24.0,0.,24.0,0.,24.0
1979-07-15 17:32:08.110 ,0,0,0.,24.0,0.,24.0,0.,24.0,0.,24.0
1979-07-15 17:32:32.110 ,0,0,0.,24.0,0.,24.0,0.,24.0,0.,24.0
1979-07-15 17:32:56.110 ,3,1,0.,24.0,0.,24.0,0.,24.0,0.,24.0
1979-07-15 17:33:20.110 ,3,0,0.,24.0,0.,24.0,0.,24.0,0.,24.0
1979-07-15 17:33:44.110 ,2,1,0.,24.0,0.,24.0,0.,24.0,0.,24.0
1979-07-15 17:34:08.110 ,2,0,0.,24.0,0.,24.0,0.,24.0,0.,24.0
1979-07-15 17:34:32.110 ,1,1,0.,24.0,0.,24.0,0.,24.0,0.,24.0
1979-07-15 17:34:56.110 ,1,0,0.,24.0,0.,24.0,0.,24.0,0.,24.0
1979-07-15 17:35:20.110 ,0,1,0.,24.0,0.,24.0,0.,24.0,0.,24.0
1979-07-15 17:35:44.110 ,0,0,0.,24.0,0.,24.0,0.,24.0,0.,24.0
1979-07-15 17:36:08.110 ,0,1,0.,24.0,0.,24.0,0.,24.0,0.,24.0